星链-3747 (STARLINK-3747 )

导读 | 豆包AI

STARLINK-3747是美国太空探索技术公司(SpaceX)旗下星链(Starlink)星座中的一颗低轨通信卫星,于北京时间2022年4月21日发射入轨。星链项目旨在构建全球覆盖的卫星互联网星座,为全球缺乏地面网络基础设施的区域提供高速宽带接入服务,STARLINK-3747的入轨进一步扩充了星链星座的服务覆盖范围与网络容量。

基本信息
目录编号:
52306
目录名称:
STARLINK-3747
国际标识:
2022-041AX
轨道中心:
EARTH
卫星名称:
星链-3747
卫星全名:
星链-3747 (STARLINK-3747 )
卫星状态:
在轨 (已飞行1423 天)
发射日期:
2022-04-21 UTC
国别 :
美国 (US)
星等 :
--
轨道信息
数据来源 国际轨道数据
星历时间: 2026-03-14T14:38:51+0800
16小时前
查看轨道信息
半长轴: 6917.896km
偏心率: 0.0001392
轨道倾角: 53.217°
近地点辐角 85.344°
升交点赤经 68.526°
平近点角 274.771°
近地点: 538.796km
远地点: 540.722km
周期: 95.438分钟
每日圈数: 15.088352
详细信息
固有亮度:
5
最大亮度:
2.5
卫星平台:
Starlink v1.5
覆盖范围:
全球
运营商:
太空探索技术公司
运营商所在国:
美国
制造商(研发单位):
太空探索技术公司
制造商所在国:
美国
使用方式:
暂无
卫星简介
星链(Starlink)计划是由太空探索技术公司(SpaceX)提出的一个巨型低轨卫星互联网星座项目,计划在2019年至2024年间在太空搭建由约1.2万颗卫星组成的“星链”网络,其中1584颗将部署在地球上空550千米处的近地轨道,并从2020年开始工作。该卫星仍在工作。
2D轨道图
3D轨道图
轨道高度分析图
轨道倾角分析图
轨道综合分析图
查看轨道综合分析图